WetterOnline ( https://www.wetteronline.de )

Wetter aktuell Chiemgau

Aktuelles Wetter: Chieming (553m)

6-stündlich | Neueste Meldungen
Ortszeit Temperatur Wetter
Fr, 18.06. 2:00 18.2° C wolkig
Do, 17.06. 20:00 27.7° C wolkenlos
Do, 17.06. 14:00 28.6° C wolkenlos
Do, 17.06. 8:00 20.5° C wolkenlos
Do, 17.06. 2:00 17.1° C leicht bewölkt
Mi, 16.06. 20:00 25.6° C leicht bewölkt
Mi, 16.06. 14:00 27.5° C leicht bewölkt
Mi, 16.06. 8:00 19.8° C leicht bewölkt
Ortszeit Temperatur Wetter
Fr, 18.06. 2:30 17.4° C wolkig
Fr, 18.06. 2:20 17.4° C wolkig
Fr, 18.06. 2:10 18.5° C wolkig
Fr, 18.06. 2:00 18.2° C wolkig
Fr, 18.06. 1:50 18.2° C wolkig
Fr, 18.06. 1:40 18.0° C wolkig
Fr, 18.06. 1:30 18.4° C wolkig
Fr, 18.06. 1:00 18.9° C leicht bewölkt
Ortszeit Relative Feuchte Sichtweite
Fr, 18.06. 2:00 79% 35 km
Do, 17.06. 20:00 47% 65 km
Do, 17.06. 14:00 47% 55 km
Do, 17.06. 8:00 58% 50 km
Do, 17.06. 2:00 72% 28 km
Mi, 16.06. 20:00 42% 50 km
Mi, 16.06. 14:00 40% 60 km
Mi, 16.06. 8:00 58% 40 km
Ortszeit Relative Feuchte Sichtweite
Fr, 18.06. 2:30 81% 40 km
Fr, 18.06. 2:20 81% -
Fr, 18.06. 2:10 76% -
Fr, 18.06. 2:00 79% 35 km
Fr, 18.06. 1:50 79% -
Fr, 18.06. 1:40 79% -
Fr, 18.06. 1:30 78% 27 km
Fr, 18.06. 1:00 77% 28 km
Ortszeit Niederschlagsmenge Niederschlagsart
Fr, 18.06. 2:00 0.0 l/m2 in 6 Std. -
Do, 17.06. 20:00 0.0 l/m2 in 12 Std. -
Do, 17.06. 14:00 0.1 l/m2 in 6 Std. Sprühregen
Do, 17.06. 8:00 0.0 l/m2 in 12 Std. -
Do, 17.06. 2:00 0.0 l/m2 in 6 Std. -
Mi, 16.06. 20:00 0.0 l/m2 in 12 Std. -
Mi, 16.06. 14:00 0.0 l/m2 in 6 Std. -
Mi, 16.06. 8:00 0.0 l/m2 in 12 Std. -
Ortszeit Niederschlagsmenge Niederschlagsart
Fr, 18.06. 2:30 0.0 l/m2 in 1 Std. -
Fr, 18.06. 2:20 keine Meldung -
Fr, 18.06. 2:10 keine Meldung -
Fr, 18.06. 2:00 0.0 l/m2 in 1 Std. -
Fr, 18.06. 1:50 keine Meldung -
Fr, 18.06. 1:40 keine Meldung -
Fr, 18.06. 1:30 0.0 l/m2 in 1 Std. -
Fr, 18.06. 1:00 0.0 l/m2 in 1 Std. -
Ortszeit Stärke Spitze Richtung
km/h Bft. km/h Grad Sektor
Fr, 18.06. 2:00 4 1 14 80° O
Do, 17.06. 20:00 11 2 18 60° NO
Do, 17.06. 14:00 9 2 13 270° W
Do, 17.06. 8:00 4 1 11 20° N
Do, 17.06. 2:00 7 2 18 110° O
Mi, 16.06. 20:00 17 3 30 70° O
Mi, 16.06. 14:00 11 2 25 70° O
Mi, 16.06. 8:00 4 1 7 30° NO
Ortszeit Stärke Spitze Richtung
km/h Bft. km/h Grad Sektor
Fr, 18.06. 2:30 4 1 4 120° SO
Fr, 18.06. 2:20 4 1 - 120° SO
Fr, 18.06. 2:10 4 1 - 170° S
Fr, 18.06. 2:00 4 1 11 80° O
Fr, 18.06. 1:50 4 1 - 80° O
Fr, 18.06. 1:40 7 2 - 60° NO
Fr, 18.06. 1:30 7 2 11 90° O
Fr, 18.06. 1:00 7 2 14 80° O
Ortszeit Untergrenze Bedeckung Gattung
total tief tief mittel hoch
Fr, 18.06. 2:00 10500 m 8/8 0/8 - - -
Do, 17.06. 20:00 - 0/8 0/8 - - -
Do, 17.06. 14:00 - 0/8 0/8 - - -
Do, 17.06. 8:00 - 0/8 0/8 - - -
Do, 17.06. 2:00 10500 m 3/8 0/8 - - -
Mi, 16.06. 20:00 10500 m 7/8 0/8 - - -
Mi, 16.06. 14:00 10500 m 6/8 0/8 - - -
Mi, 16.06. 8:00 10500 m 8/8 0/8 - - -
Ortszeit Bedeckungsgrad in Achtel und Wolkenuntergrenze
Fr, 18.06. 2:30 8(10500m)
Fr, 18.06. 2:20 8(10500m)
Fr, 18.06. 2:10 8(10500m)
Fr, 18.06. 2:00 8(10500m)
Fr, 18.06. 1:50 8(10500m)
Fr, 18.06. 1:40 8(10500m) 8(10500m)
Fr, 18.06. 1:30 8(10500m) 8(10500m)
Fr, 18.06. 1:00 5(10500m)
Ortszeit Luftdruck NN (hPa) Tendenz (hPa in 3 Std.)
Fr, 18.06. 2:00 1014 - 0,1
Do, 17.06. 20:00 1012 + 0,4
Do, 17.06. 14:00 1012 - 0,4
Do, 17.06. 8:00 1014 + 0,7
Do, 17.06. 2:00 1015 + 0,3
Mi, 16.06. 20:00 1012 - 0,5
Mi, 16.06. 14:00 1013 - 0,7
Mi, 16.06. 8:00 1016 - 0,1
Ortszeit Luftdruck NN (hPa) Tendenz (hPa in 3 Std.)
Fr, 18.06. 2:30 1014 - 0,4
Fr, 18.06. 2:20 1014 keine Meldung
Fr, 18.06. 2:10 1014 keine Meldung
Fr, 18.06. 2:00 1014 - 0,1
Fr, 18.06. 1:50 1014 keine Meldung
Fr, 18.06. 1:40 1014 keine Meldung
Fr, 18.06. 1:30 1014 + 0,1
Fr, 18.06. 1:00 1014 + 0,2
Ortszeit Schneehöhe (cm)
Fr, 18.06. 2:00 -
Do, 17.06. 20:00 -
Do, 17.06. 14:00 -
Do, 17.06. 8:00 -
Do, 17.06. 2:00 -
Mi, 16.06. 20:00 -
Mi, 16.06. 14:00 -
Mi, 16.06. 8:00 -
Ortszeit Schneehöhe (cm)
Fr, 18.06. 2:30 -
Fr, 18.06. 2:20 -
Fr, 18.06. 2:10 -
Fr, 18.06. 2:00 -
Fr, 18.06. 1:50 -
Fr, 18.06. 1:40 -
Fr, 18.06. 1:30 -
Fr, 18.06. 1:00 -
Link zu dieser Seite / Seite empfehlen

Das Wetter in ...